KAC107 LTFM-OKKK

Flight info

Callsign KAC107
Flight time 3h 2m
Altitude 35000
Route VICEN1D VICEN UT57 VEVUD UT341 BAG UG8 BULUT/N0452F370 UG8 OTKEP UM688 RATVO M688 KEDIM DCT SISIN M688 SIDAD N302 ALVAX DCT
Aircraft A320/M-SDE3FGHIRWY/LB1

Departure

Time 2026-05-01 11:44
Airport İstanbul Airport (LTFM)

Arrival

Time 2026-05-01 14:47
Airport Kuwait International Airport (OKKK)
Time Latitude Longitude Altitude Speed Heading
2026-05-01 11:10 41.26538 28.73516 304 ft 0 kts 72°
2026-05-01 11:33 41.26537 28.73516 304 ft 1 kts 72°
2026-05-01 11:33 41.26530 28.73485 304 ft 4 kts 72°
2026-05-01 11:33 41.26521 28.73451 304 ft 4 kts 72°
2026-05-01 11:33 41.26513 28.73416 304 ft 4 kts 72°
2026-05-01 11:34 41.26505 28.73385 304 ft 2 kts 71°
2026-05-01 11:34 41.26502 28.73371 304 ft 4 kts 154°
2026-05-01 11:34 41.26525 28.73359 305 ft 4 kts 162°
2026-05-01 11:34 41.26551 28.73348 304 ft 4 kts 162°
2026-05-01 11:35 41.26571 28.73340 304 ft 0 kts 162°
2026-05-01 11:38 41.26570 28.73340 304 ft 1 kts 162°
2026-05-01 11:39 41.26542 28.73352 306 ft 4 kts 162°
2026-05-01 11:39 41.26517 28.73363 304 ft 3 kts 162°
2026-05-01 11:39 41.26484 28.73376 304 ft 6 kts 162°
2026-05-01 11:39 41.26449 28.73391 304 ft 5 kts 162°
2026-05-01 11:40 41.26421 28.73402 305 ft 5 kts 162°
2026-05-01 11:40 41.26390 28.73415 306 ft 5 kts 162°
2026-05-01 11:40 41.26349 28.73432 304 ft 6 kts 162°
2026-05-01 11:40 41.26312 28.73449 304 ft 5 kts 160°
2026-05-01 11:41 41.26247 28.73475 304 ft 13 kts 178°
2026-05-01 11:41 41.26198 28.73398 307 ft 12 kts 259°
2026-05-01 11:41 41.26193 28.73258 304 ft 19 kts 269°
2026-05-01 11:41 41.26193 28.73095 304 ft 15 kts 270°
2026-05-01 11:42 41.26191 28.72984 304 ft 11 kts 271°
2026-05-01 11:42 41.26193 28.72921 304 ft 2 kts 272°
2026-05-01 11:42 41.26193 28.72920 304 ft 0 kts 272°
2026-05-01 11:43 41.26193 28.72883 305 ft 11 kts 270°
2026-05-01 11:43 41.26196 28.72723 305 ft 23 kts 270°
2026-05-01 11:43 41.26218 28.72544 304 ft 17 kts 321°
2026-05-01 11:44 41.26493 28.72519 305 ft 60 kts 359°
2026-05-01 11:44 41.27122 28.72506 306 ft 119 kts 359°
2026-05-01 11:44 41.28118 28.72485 327 ft 162 kts 359°
2026-05-01 11:44 41.29236 28.72438 929 ft 163 kts
2026-05-01 11:45 41.30421 28.72390 1411 ft 178 kts
2026-05-01 11:45 41.31725 28.72394 1767 ft 196 kts
2026-05-01 11:45 41.33184 28.72429 2155 ft 221 kts
2026-05-01 11:45 41.34798 28.72467 2725 ft 238 kts
2026-05-01 11:46 41.36471 28.72458 3544 ft 243 kts 356°
2026-05-01 11:46 41.38040 28.71564 4346 ft 257 kts 320°
2026-05-01 11:46 41.38959 28.69531 5181 ft 270 kts 286°
2026-05-01 11:46 41.39077 28.67009 6028 ft 277 kts 269°
2026-05-01 11:47 41.38847 28.64449 6876 ft 281 kts 264°
2026-05-01 11:47 41.38555 28.61869 7707 ft 283 kts 264°
2026-05-01 11:47 41.38209 28.59278 8503 ft 288 kts 252°
2026-05-01 11:47 41.37163 28.56984 9252 ft 295 kts 226°
2026-05-01 11:48 41.35455 28.55478 10039 ft 299 kts 199°
2026-05-01 11:48 41.33378 28.55092 10593 ft 312 kts 178°
2026-05-01 11:48 41.31126 28.55213 10787 ft 335 kts 179°
2026-05-01 11:48 41.28714 28.55375 10923 ft 359 kts 174°
2026-05-01 11:49 41.26221 28.56080 11284 ft 373 kts 162°
2026-05-01 11:49 41.23819 28.57462 11905 ft 379 kts 151°
2026-05-01 11:49 41.21650 28.59495 12550 ft 384 kts 140°
2026-05-01 11:49 41.19709 28.61960 13188 ft 388 kts 137°
2026-05-01 11:50 41.17762 28.64466 13789 ft 392 kts 138°
2026-05-01 11:50 41.15794 28.66991 14380 ft 395 kts 138°
2026-05-01 11:50 41.13828 28.69513 14955 ft 399 kts 138°
2026-05-01 11:50 41.12005 28.72333 15497 ft 406 kts 128°
2026-05-01 11:51 41.10441 28.75486 16026 ft 410 kts 126°
2026-05-01 11:51 41.08877 28.78684 16532 ft 414 kts 126°
2026-05-01 11:51 41.07299 28.81907 17031 ft 418 kts 127°
2026-05-01 11:51 41.05724 28.85111 17525 ft 421 kts 127°
2026-05-01 11:52 41.04115 28.88369 17996 ft 424 kts 127°
2026-05-01 11:52 41.02468 28.91630 18471 ft 426 kts 131°
2026-05-01 11:52 41.00539 28.94589 18925 ft 423 kts 140°
2026-05-01 11:52 40.98436 28.97320 19383 ft 425 kts 140°
2026-05-01 11:53 40.96315 29.00070 19847 ft 428 kts 140°
2026-05-01 11:53 40.94183 29.02837 20303 ft 430 kts 141°
2026-05-01 11:53 40.92044 29.05615 20732 ft 433 kts 141°
2026-05-01 11:53 40.89894 29.08407 21163 ft 434 kts 141°
2026-05-01 11:54 40.87732 29.11224 21588 ft 438 kts 139°
2026-05-01 11:54 40.85781 29.14345 21981 ft 447 kts 129°
2026-05-01 11:54 40.84215 29.17950 22355 ft 456 kts 120°
2026-05-01 11:54 40.83125 29.21918 22715 ft 464 kts 109°
2026-05-01 11:55 40.82321 29.26061 23065 ft 467 kts 109°
2026-05-01 11:55 40.81781 29.28822 23300 ft 468 kts 109°
2026-05-01 11:55 40.80955 29.33000 23640 ft 471 kts 109°
2026-05-01 11:55 40.80120 29.37195 23983 ft 473 kts 109°
2026-05-01 11:56 40.79277 29.41403 24337 ft 475 kts 109°
2026-05-01 11:56 40.78431 29.45620 24670 ft 477 kts 110°
2026-05-01 11:56 40.77578 29.49873 25000 ft 479 kts 110°
2026-05-01 11:56 40.76723 29.54126 25310 ft 480 kts 110°
2026-05-01 11:57 40.75866 29.58393 25602 ft 482 kts 110°
2026-05-01 11:57 40.75001 29.62682 25884 ft 484 kts 110°
2026-05-01 11:57 40.74134 29.66982 26162 ft 486 kts 109°
2026-05-01 11:57 40.73517 29.71357 26414 ft 494 kts 101°
2026-05-01 11:58 40.73352 29.75908 26663 ft 499 kts 95°
2026-05-01 11:58 40.73290 29.80492 26933 ft 501 kts 95°
2026-05-01 11:58 40.73128 29.89678 27591 ft 500 kts 96°
2026-05-01 11:59 40.73034 29.94258 27953 ft 499 kts 96°
2026-05-01 11:59 40.72940 29.98829 28309 ft 498 kts 96°
2026-05-01 11:59 40.72808 30.03391 28655 ft 495 kts 100°
2026-05-01 12:00 40.71344 30.12047 29356 ft 481 kts 115°
2026-05-01 12:00 40.70234 30.16218 29708 ft 481 kts 115°
2026-05-01 12:00 40.68035 30.24530 30424 ft 478 kts 115°
2026-05-01 12:01 40.66825 30.28584 30734 ft 472 kts 122°
2026-05-01 12:01 40.65221 30.32310 31009 ft 464 kts 130°
2026-05-01 12:01 40.63285 30.35702 31266 ft 461 kts 135°
2026-05-01 12:01 40.61310 30.39032 31568 ft 461 kts 134°
2026-05-01 12:02 40.59372 30.42318 31880 ft 461 kts 134°
2026-05-01 12:02 40.57413 30.45655 32156 ft 461 kts 134°
2026-05-01 12:02 40.55488 30.49025 32443 ft 463 kts 130°
2026-05-01 12:02 40.53868 30.52749 32735 ft 471 kts 121°
2026-05-01 12:03 40.52681 30.56819 33025 ft 478 kts 111°
2026-05-01 12:03 40.51886 30.61084 33285 ft 481 kts 108°
2026-05-01 12:03 40.51126 30.65367 33552 ft 481 kts 108°
2026-05-01 12:03 40.50366 30.69637 33829 ft 481 kts 108°
2026-05-01 12:04 40.49599 30.73913 34101 ft 480 kts 109°
2026-05-01 12:04 40.48759 30.78090 34370 ft 478 kts 111°
2026-05-01 12:04 40.47808 30.82268 34634 ft 477 kts 112°
2026-05-01 12:04 40.46791 30.86408 34888 ft 476 kts 114°
2026-05-01 12:05 40.45746 30.90533 35067 ft 477 kts 114°
2026-05-01 12:05 40.42631 31.03086 35130 ft 483 kts 112°
2026-05-01 12:06 40.40634 31.11511 35119 ft 483 kts 112°
2026-05-01 12:06 40.38649 31.19874 35120 ft 483 kts 112°
2026-05-01 12:07 40.37082 31.28503 35118 ft 487 kts 106°
2026-05-01 12:07 40.35681 31.37194 35117 ft 487 kts 107°
2026-05-01 12:08 40.34260 31.45859 35115 ft 486 kts 107°
2026-05-01 12:08 40.32834 31.54474 35113 ft 486 kts 107°
2026-05-01 12:09 40.31401 31.63129 35108 ft 486 kts 106°
2026-05-01 12:09 40.29975 31.71799 35107 ft 485 kts 106°
2026-05-01 12:10 40.27825 31.84769 35095 ft 485 kts 106°
2026-05-01 12:11 40.25521 31.97619 35069 ft 483 kts 109°
2026-05-01 12:11 40.23643 32.06070 35062 ft 482 kts 111°
2026-05-01 12:12 40.21710 32.14469 35057 ft 481 kts 111°
2026-05-01 12:12 40.19856 32.22821 35052 ft 482 kts 111°
2026-05-01 12:13 40.18033 32.31253 35048 ft 482 kts 111°
2026-05-01 12:13 40.16200 32.39684 35042 ft 481 kts 111°
2026-05-01 12:14 40.14349 32.48084 35034 ft 481 kts 111°
2026-05-01 12:14 40.12478 32.56471 35025 ft 480 kts 111°
2026-05-01 12:15 40.10605 32.64847 35024 ft 480 kts 111°
2026-05-01 12:15 40.08747 32.73179 35017 ft 480 kts 111°
2026-05-01 12:16 40.06862 32.81547 35005 ft 478 kts 112°
2026-05-01 12:16 40.04651 32.89709 35006 ft 475 kts 117°
2026-05-01 12:17 40.02183 32.97707 34992 ft 475 kts 117°
2026-05-01 12:17 39.99716 33.05702 34988 ft 475 kts 117°
2026-05-01 12:18 39.97325 33.13735 34985 ft 476 kts 115°
2026-05-01 12:18 39.94969 33.21762 34987 ft 477 kts 115°
2026-05-01 12:19 39.92585 33.29840 34997 ft 477 kts 116°
2026-05-01 12:19 39.90177 33.37909 34995 ft 477 kts 116°
2026-05-01 12:20 39.87759 33.45959 34985 ft 477 kts 116°
2026-05-01 12:20 39.85353 33.53960 34982 ft 477 kts 116°
2026-05-01 12:21 39.83019 33.62047 34979 ft 480 kts 110°
2026-05-01 12:21 39.81324 33.70454 34974 ft 481 kts 109°
2026-05-01 12:22 39.79635 33.78818 34972 ft 481 kts 109°
2026-05-01 12:22 39.77919 33.87225 34972 ft 481 kts 109°
2026-05-01 12:23 39.75722 33.95385 34970 ft 477 kts 115°
2026-05-01 12:23 39.73424 34.03481 34967 ft 477 kts 115°
2026-05-01 12:24 39.71132 34.11577 34964 ft 477 kts 115°
2026-05-01 12:24 39.68837 34.19665 34962 ft 477 kts 115°
2026-05-01 12:25 39.65386 34.31720 34958 ft 477 kts 115°
2026-05-01 12:26 39.63063 34.39802 34956 ft 478 kts 115°
2026-05-01 12:26 39.59571 34.51910 34951 ft 478 kts 115°
2026-05-01 12:27 39.56071 34.64033 34949 ft 478 kts 115°
2026-05-01 12:28 39.52560 34.76105 34944 ft 479 kts 115°
2026-05-01 12:29 39.49018 34.88208 34938 ft 479 kts 115°
2026-05-01 12:29 39.45463 35.00309 34934 ft 479 kts 115°
2026-05-01 12:30 39.41901 35.12399 34926 ft 479 kts 115°
2026-05-01 12:31 39.39534 35.20418 34927 ft 480 kts 115°
2026-05-01 12:31 39.37189 35.28488 34921 ft 479 kts 114°
2026-05-01 12:32 39.34865 35.36572 34919 ft 479 kts 114°
2026-05-01 12:32 39.31349 35.48687 34909 ft 479 kts 115°
2026-05-01 12:33 39.28999 35.56742 34901 ft 479 kts 115°
2026-05-01 12:33 39.26642 35.64794 34896 ft 479 kts 115°
2026-05-01 12:34 39.24276 35.72828 34898 ft 479 kts 115°
2026-05-01 12:34 39.21916 35.80817 34899 ft 479 kts 115°
2026-05-01 12:35 39.19541 35.88833 34903 ft 479 kts 115°
2026-05-01 12:35 39.17163 35.96861 34906 ft 479 kts 115°
2026-05-01 12:36 39.15118 36.05049 34906 ft 484 kts 103°
2026-05-01 12:36 39.14041 36.13627 34903 ft 485 kts 102°
2026-05-01 12:37 39.12948 36.22189 34904 ft 484 kts 103°
2026-05-01 12:37 39.11845 36.30761 34908 ft 485 kts 103°
2026-05-01 12:38 39.10751 36.39272 34910 ft 485 kts 103°
2026-05-01 12:38 39.09650 36.47844 34916 ft 485 kts 103°
2026-05-01 12:39 39.08539 36.56409 34920 ft 485 kts 103°
2026-05-01 12:39 39.07420 36.64966 34919 ft 485 kts 103°
2026-05-01 12:40 39.06298 36.73530 34917 ft 485 kts 103°
2026-05-01 12:40 39.05167 36.82113 34917 ft 485 kts 103°
2026-05-01 12:41 39.04027 36.90671 34919 ft 485 kts 103°
2026-05-01 12:41 39.02889 36.99174 34928 ft 485 kts 103°
2026-05-01 12:42 39.01739 37.07735 34937 ft 485 kts 103°
2026-05-01 12:42 39.00774 37.14849 34947 ft 485 kts 103°
2026-05-01 12:43 38.99609 37.23415 34945 ft 485 kts 103°
2026-05-01 12:43 38.98445 37.31980 34940 ft 486 kts 103°
2026-05-01 12:44 38.97270 37.40483 34941 ft 486 kts 103°
2026-05-01 12:45 38.94893 37.57609 34948 ft 487 kts 103°
2026-05-01 12:45 38.93706 37.66188 34943 ft 486 kts 103°
2026-05-01 12:46 38.92504 37.74733 34945 ft 487 kts 103°
2026-05-01 12:46 38.91295 37.83285 34943 ft 487 kts 103°
2026-05-01 12:47 38.90076 37.91837 34948 ft 487 kts 104°
2026-05-01 12:47 38.88846 38.00381 34942 ft 487 kts 104°
2026-05-01 12:48 38.87629 38.08873 34949 ft 486 kts 103°
2026-05-01 12:48 38.86398 38.17416 34945 ft 486 kts 103°
2026-05-01 12:49 38.85161 38.25943 34940 ft 486 kts 104°
2026-05-01 12:49 38.83912 38.34480 34943 ft 486 kts 104°
2026-05-01 12:50 38.82670 38.42942 34934 ft 485 kts 104°
2026-05-01 12:50 38.81413 38.51457 34934 ft 486 kts 104°
2026-05-01 12:51 38.80158 38.59960 34933 ft 485 kts 104°
2026-05-01 12:52 38.78263 38.72706 34935 ft 485 kts 104°
2026-05-01 12:52 38.76332 38.85456 34935 ft 485 kts 104°
2026-05-01 12:53 38.74412 38.98201 34942 ft 485 kts 103°
2026-05-01 12:54 38.73160 39.06684 34933 ft 487 kts 104°
2026-05-01 12:54 38.71264 39.19399 34935 ft 484 kts 103°
2026-05-01 12:55 38.69344 39.27546 34944 ft 480 kts 114°
2026-05-01 12:55 38.68171 39.31562 34940 ft 481 kts 114°
2026-05-01 12:56 38.65826 39.39585 34943 ft 481 kts 114°
2026-05-01 12:56 38.63479 39.47608 34948 ft 481 kts 114°
2026-05-01 12:57 38.61137 39.55625 34952 ft 481 kts 113°
2026-05-01 12:57 38.57695 39.67624 34945 ft 481 kts 113°
2026-05-01 12:58 38.55374 39.75661 34949 ft 482 kts 113°
2026-05-01 12:59 38.51879 39.87732 34959 ft 482 kts 113°
2026-05-01 12:59 38.48361 39.99769 34961 ft 482 kts 114°
2026-05-01 13:00 38.44852 40.11733 34963 ft 482 kts 113°
2026-05-01 13:01 38.41318 40.23749 34963 ft 481 kts 114°
2026-05-01 13:02 38.37781 40.35704 34960 ft 481 kts 114°
2026-05-01 13:07 38.11206 41.23012 34973 ft 481 kts 114°
2026-05-01 13:08 38.08800 41.30959 34976 ft 481 kts 114°
2026-05-01 13:08 38.06379 41.38892 34978 ft 482 kts 114°
2026-05-01 13:09 38.03954 41.46747 34980 ft 481 kts 115°
2026-05-01 13:09 38.01490 41.54655 34982 ft 481 kts 115°
2026-05-01 13:10 37.99045 41.62553 34979 ft 481 kts 115°
2026-05-01 13:10 37.96599 41.70459 34981 ft 482 kts 115°
2026-05-01 13:11 37.94144 41.78373 34987 ft 482 kts 115°
2026-05-01 13:11 37.91741 41.86331 34986 ft 484 kts 109°
2026-05-01 13:12 37.90646 41.94717 34979 ft 488 kts 96°
2026-05-01 13:12 37.90119 42.03305 34981 ft 489 kts 96°
2026-05-01 13:13 37.89573 42.11895 34982 ft 489 kts 97°
2026-05-01 13:13 37.89010 42.20473 34996 ft 488 kts 97°
2026-05-01 13:14 37.88443 42.29000 34999 ft 488 kts 97°
2026-05-01 13:14 37.87860 42.37571 35001 ft 488 kts 97°
2026-05-01 13:15 37.87278 42.46143 35008 ft 489 kts 97°
2026-05-01 13:15 37.86698 42.54718 35003 ft 489 kts 97°
2026-05-01 13:16 37.85887 42.63246 35006 ft 486 kts 106°
2026-05-01 13:16 37.83461 42.71139 35014 ft 478 kts 124°
2026-05-01 13:17 37.76603 42.85476 35020 ft 478 kts 125°
2026-05-01 13:18 37.71461 42.96252 35030 ft 477 kts 125°
2026-05-01 13:18 37.68009 43.03434 35035 ft 478 kts 125°
2026-05-01 13:19 37.64537 43.10611 35043 ft 479 kts 125°
2026-05-01 13:20 37.59349 43.21338 35054 ft 478 kts 125°
2026-05-01 13:20 37.55874 43.28504 35057 ft 478 kts 125°
2026-05-01 13:21 37.50661 43.39239 35059 ft 478 kts 125°
2026-05-01 13:21 37.47176 43.46387 35058 ft 478 kts 126°
2026-05-01 13:22 37.43688 43.53512 35070 ft 479 kts 126°
2026-05-01 13:22 37.40217 43.60605 35083 ft 479 kts 126°
2026-05-01 13:23 37.36721 43.67742 35095 ft 479 kts 126°
2026-05-01 13:23 37.33222 43.74863 35101 ft 479 kts 126°
2026-05-01 13:24 37.29713 43.81995 35108 ft 479 kts 126°
2026-05-01 13:25 37.23740 43.91838 35109 ft 467 kts 144°
2026-05-01 13:25 37.18309 43.96094 35108 ft 455 kts 162°
2026-05-01 13:26 37.12406 43.98884 35103 ft 453 kts 165°
2026-05-01 13:26 37.06530 44.01631 35101 ft 454 kts 164°
2026-05-01 13:27 37.00613 44.04390 35095 ft 454 kts 165°
2026-05-01 13:27 36.91710 44.08508 35071 ft 454 kts 165°
2026-05-01 13:28 36.82860 44.12608 35060 ft 454 kts 165°
2026-05-01 13:29 36.71952 44.17498 35028 ft 453 kts 167°
2026-05-01 13:31 36.53935 44.24723 34991 ft 453 kts 167°
2026-05-01 13:32 36.38993 44.30827 34974 ft 454 kts 167°
2026-05-01 13:33 36.23973 44.36921 34961 ft 454 kts 167°
2026-05-01 13:34 36.11944 44.41765 34954 ft 454 kts 167°
2026-05-01 13:35 36.02933 44.45399 34949 ft 454 kts 167°
2026-05-01 13:36 35.93939 44.48999 34952 ft 454 kts 168°
2026-05-01 13:36 35.84919 44.52618 34951 ft 454 kts 168°
2026-05-01 13:37 35.78891 44.55028 34944 ft 455 kts 168°
2026-05-01 13:37 35.72854 44.57441 34948 ft 456 kts 168°
2026-05-01 13:38 35.63794 44.61052 34950 ft 457 kts 168°
2026-05-01 13:39 35.57788 44.63436 34959 ft 456 kts 168°
2026-05-01 13:39 35.51739 44.65831 34959 ft 456 kts 168°
2026-05-01 13:40 35.45681 44.68232 34959 ft 457 kts 168°
2026-05-01 13:40 35.39626 44.70632 34957 ft 457 kts 168°
2026-05-01 13:41 35.33556 44.73033 34958 ft 458 kts 168°
2026-05-01 13:41 35.27526 44.75405 34962 ft 458 kts 168°
2026-05-01 13:42 35.21463 44.77795 34971 ft 458 kts 168°
2026-05-01 13:42 35.15378 44.80198 34978 ft 459 kts 169°
2026-05-01 13:43 35.09294 44.82589 34985 ft 459 kts 169°
2026-05-01 13:43 35.03243 44.84956 35000 ft 459 kts 169°
2026-05-01 13:44 34.97141 44.87335 34988 ft 460 kts 169°
2026-05-01 13:44 34.91053 44.89712 34987 ft 460 kts 169°
2026-05-01 13:45 34.84951 44.92098 34997 ft 460 kts 169°
2026-05-01 13:45 34.78855 44.94472 34992 ft 460 kts 169°
2026-05-01 13:46 34.72792 44.96823 35000 ft 460 kts 169°
2026-05-01 13:46 34.66677 44.99207 35005 ft 460 kts 169°
2026-05-01 13:47 34.60565 45.01582 35000 ft 461 kts 169°
2026-05-01 13:47 34.54444 45.03942 35008 ft 461 kts 169°
2026-05-01 13:48 34.48373 45.06286 35013 ft 461 kts 169°
2026-05-01 13:48 34.42260 45.08655 35005 ft 461 kts 169°
2026-05-01 13:49 34.36105 45.11031 35006 ft 461 kts 169°
2026-05-01 13:49 34.30023 45.13363 35011 ft 461 kts 170°
2026-05-01 13:50 34.23906 45.15712 35019 ft 462 kts 170°
2026-05-01 13:50 34.17771 45.18070 35021 ft 462 kts 170°
2026-05-01 13:51 34.11639 45.20425 35023 ft 461 kts 170°
2026-05-01 13:51 34.05516 45.22764 35026 ft 461 kts 170°
2026-05-01 13:52 33.99429 45.25089 35024 ft 461 kts 170°
2026-05-01 13:52 33.93312 45.27419 35019 ft 461 kts 171°
2026-05-01 13:53 33.87188 45.29747 35022 ft 461 kts 171°
2026-05-01 13:53 33.77998 45.33233 35025 ft 462 kts 170°
2026-05-01 13:54 33.71906 45.35540 35029 ft 462 kts 170°
2026-05-01 13:54 33.65772 45.37866 35031 ft 461 kts 170°
2026-05-01 13:55 33.59644 45.40186 35038 ft 462 kts 170°
2026-05-01 13:55 33.53521 45.42509 35039 ft 461 kts 170°
2026-05-01 13:56 33.47400 45.44817 35041 ft 461 kts 171°
2026-05-01 13:56 33.41278 45.47116 35035 ft 461 kts 171°
2026-05-01 13:57 33.36180 45.49028 35034 ft 462 kts 171°
2026-05-01 13:57 33.29043 45.51706 35039 ft 462 kts 170°
2026-05-01 13:58 33.22892 45.54013 35041 ft 462 kts 171°
2026-05-01 13:58 33.16750 45.56316 35033 ft 462 kts 171°
2026-05-01 13:59 33.10605 45.58611 35028 ft 463 kts 171°
2026-05-01 13:59 33.04455 45.60902 35026 ft 463 kts 171°
2026-05-01 14:00 32.98338 45.63179 35025 ft 463 kts 171°
2026-05-01 14:00 32.92188 45.65471 35026 ft 463 kts 171°
2026-05-01 14:01 32.86028 45.67794 35023 ft 466 kts 167°
2026-05-01 14:01 32.83058 45.69433 35024 ft 477 kts 157°
2026-05-01 14:01 32.80287 45.71671 35023 ft 485 kts 148°
2026-05-01 14:02 32.74993 45.76657 35018 ft 485 kts 148°
2026-05-01 14:02 32.69716 45.81576 35015 ft 485 kts 149°
2026-05-01 14:03 32.64394 45.86503 35009 ft 485 kts 149°
2026-05-01 14:03 32.59068 45.91441 35013 ft 485 kts 149°
2026-05-01 14:04 32.53745 45.96385 35003 ft 486 kts 149°
2026-05-01 14:04 32.49317 46.00491 35006 ft 485 kts 149°
2026-05-01 14:05 32.43125 46.06210 35000 ft 485 kts 149°
2026-05-01 14:05 32.37792 46.11131 34996 ft 485 kts 149°
2026-05-01 14:06 32.32469 46.16039 34992 ft 485 kts 149°
2026-05-01 14:06 32.27145 46.20931 34998 ft 485 kts 149°
2026-05-01 14:07 32.21816 46.25823 34984 ft 485 kts 149°
2026-05-01 14:08 32.13824 46.33148 34982 ft 485 kts 149°
2026-05-01 14:08 32.08486 46.38038 34979 ft 486 kts 149°
2026-05-01 14:09 32.03141 46.42924 34982 ft 485 kts 149°
2026-05-01 14:09 31.97793 46.47790 34984 ft 485 kts 149°
2026-05-01 14:10 31.92451 46.52653 34997 ft 486 kts 149°
2026-05-01 14:10 31.87107 46.57528 35001 ft 486 kts 149°
2026-05-01 14:11 31.81800 46.62350 35002 ft 485 kts 150°
2026-05-01 14:11 31.73761 46.69631 35001 ft 485 kts 150°
2026-05-01 14:12 31.68408 46.74479 34985 ft 485 kts 150°
2026-05-01 14:12 31.63055 46.79326 34980 ft 486 kts 150°
2026-05-01 14:13 31.58599 46.83344 34971 ft 486 kts 150°
2026-05-01 14:13 31.52346 46.88970 34965 ft 486 kts 150°
2026-05-01 14:14 31.47888 46.92981 34961 ft 486 kts 150°
2026-05-01 14:14 31.41632 46.98598 34954 ft 486 kts 150°
2026-05-01 14:15 31.37166 47.02604 34944 ft 486 kts 150°
2026-05-01 14:15 31.31790 47.07425 34936 ft 487 kts 150°
2026-05-01 14:16 31.26419 47.12227 34916 ft 487 kts 150°
2026-05-01 14:16 31.21026 47.17039 34903 ft 486 kts 150°
2026-05-01 14:17 31.15643 47.21835 34892 ft 486 kts 150°
2026-05-01 14:17 31.10286 47.26612 34887 ft 486 kts 150°
2026-05-01 14:18 31.04905 47.31405 34885 ft 486 kts 151°
2026-05-01 14:18 30.99522 47.36183 34880 ft 486 kts 151°
2026-05-01 14:19 30.94142 47.40952 34875 ft 486 kts 151°
2026-05-01 14:19 30.88745 47.45723 34872 ft 487 kts 151°
2026-05-01 14:20 30.80767 47.53003 34871 ft 491 kts 147°
2026-05-01 14:21 30.75677 47.58380 34869 ft 495 kts 144°
2026-05-01 14:21 30.70654 47.63870 34872 ft 495 kts 145°
2026-05-01 14:22 30.63006 47.71908 34877 ft 494 kts 147°
2026-05-01 14:22 30.57853 47.77206 34878 ft 494 kts 147°
2026-05-01 14:23 30.52747 47.82479 34879 ft 495 kts 146°
2026-05-01 14:23 30.47613 47.87812 34877 ft 495 kts 146°
2026-05-01 14:24 30.42477 47.93143 34873 ft 496 kts 146°
2026-05-01 14:24 30.39907 47.95807 34479 ft 496 kts 146°
2026-05-01 14:24 30.37297 47.98502 33177 ft 508 kts 146°
2026-05-01 14:25 30.34636 48.01237 32125 ft 513 kts 145°
2026-05-01 14:25 30.31970 48.03982 31257 ft 512 kts 145°
2026-05-01 14:25 30.29310 48.06726 30324 ft 512 kts 144°
2026-05-01 14:25 30.26651 48.09471 29343 ft 513 kts 144°
2026-05-01 14:26 30.23992 48.12216 28336 ft 513 kts 144°
2026-05-01 14:26 30.18756 48.17617 26676 ft 504 kts 144°
2026-05-01 14:26 30.16135 48.20308 25606 ft 504 kts 144°
2026-05-01 14:27 30.13505 48.23002 24443 ft 505 kts 143°
2026-05-01 14:27 30.10872 48.25696 23255 ft 506 kts 143°
2026-05-01 14:27 30.08241 48.28386 22285 ft 502 kts 143°
2026-05-01 14:28 30.03094 48.33666 21144 ft 479 kts 143°
2026-05-01 14:28 30.00659 48.36177 21018 ft 460 kts 143°
2026-05-01 14:28 29.98321 48.38588 20889 ft 442 kts 143°
2026-05-01 14:28 29.96066 48.40903 20763 ft 426 kts 144°
2026-05-01 14:29 29.93884 48.43130 20666 ft 410 kts 144°
2026-05-01 14:29 29.91805 48.45245 20538 ft 397 kts 144°
2026-05-01 14:30 29.85070 48.48907 19333 ft 336 kts 184°
2026-05-01 14:30 29.82787 48.48793 18692 ft 323 kts 195°
2026-05-01 14:30 29.80575 48.48405 18045 ft 321 kts 195°
2026-05-01 14:31 29.76189 48.47655 16783 ft 315 kts 195°
2026-05-01 14:31 29.74024 48.47293 16100 ft 313 kts 195°
2026-05-01 14:31 29.71868 48.46932 15394 ft 312 kts 194°
2026-05-01 14:31 29.69728 48.46576 14724 ft 310 kts 194°
2026-05-01 14:32 29.67603 48.46224 14045 ft 307 kts 194°
2026-05-01 14:32 29.65492 48.45873 13356 ft 306 kts 194°
2026-05-01 14:32 29.63377 48.45518 12864 ft 308 kts 194°
2026-05-01 14:32 29.61267 48.45164 12562 ft 304 kts 194°
2026-05-01 14:33 29.59175 48.44813 12196 ft 303 kts 194°
2026-05-01 14:33 29.57091 48.44458 11794 ft 303 kts 193°
2026-05-01 14:33 29.55025 48.44106 11394 ft 303 kts 193°
2026-05-01 14:33 29.52929 48.43753 10988 ft 303 kts 193°
2026-05-01 14:34 29.50837 48.43402 10603 ft 303 kts 192°
2026-05-01 14:34 29.48756 48.43055 10195 ft 302 kts 192°
2026-05-01 14:34 29.46674 48.42709 9801 ft 302 kts 192°
2026-05-01 14:34 29.44584 48.42362 9405 ft 302 kts 191°
2026-05-01 14:35 29.42538 48.42020 9026 ft 300 kts 191°
2026-05-01 14:35 29.40467 48.41675 8540 ft 302 kts 191°
2026-05-01 14:35 29.38380 48.41328 8170 ft 299 kts 191°
2026-05-01 14:35 29.36365 48.40997 8044 ft 286 kts 191°
2026-05-01 14:36 29.34457 48.40545 7832 ft 275 kts 203°
2026-05-01 14:36 29.32787 48.39563 7726 ft 267 kts 218°
2026-05-01 14:36 29.31257 48.38353 7537 ft 267 kts 218°
2026-05-01 14:36 29.29721 48.37158 7306 ft 266 kts 217°
2026-05-01 14:37 29.28189 48.35973 7071 ft 265 kts 217°
2026-05-01 14:37 29.26663 48.34795 6824 ft 264 kts 217°
2026-05-01 14:37 29.25142 48.33623 6584 ft 264 kts 217°
2026-05-01 14:37 29.23620 48.32449 6341 ft 263 kts 217°
2026-05-01 14:38 29.22105 48.31282 6092 ft 262 kts 217°
2026-05-01 14:38 29.20595 48.30119 5866 ft 262 kts 217°
2026-05-01 14:38 29.19085 48.28955 5625 ft 261 kts 217°
2026-05-01 14:38 29.17579 48.27793 5387 ft 260 kts 217°
2026-05-01 14:39 29.16080 48.26638 5153 ft 260 kts 217°
2026-05-01 14:39 29.14607 48.25499 4921 ft 253 kts 217°
2026-05-01 14:39 29.13173 48.24391 4684 ft 247 kts 217°
2026-05-01 14:39 29.11780 48.23275 4458 ft 241 kts 224°
2026-05-01 14:40 29.10718 48.21844 4253 ft 232 kts 243°
2026-05-01 14:40 29.10126 48.20168 4043 ft 223 kts 261°
2026-05-01 14:40 29.09821 48.18438 3824 ft 221 kts 261°
2026-05-01 14:40 29.09514 48.16731 3622 ft 217 kts 261°
2026-05-01 14:41 29.09208 48.15059 3422 ft 213 kts 261°
2026-05-01 14:41 29.08906 48.13417 3244 ft 207 kts 261°
2026-05-01 14:41 29.08618 48.11865 3040 ft 192 kts 261°
2026-05-01 14:41 29.08354 48.10452 2861 ft 177 kts 261°
2026-05-01 14:42 29.08107 48.09122 2711 ft 165 kts 261°
2026-05-01 14:42 29.07875 48.07878 2554 ft 156 kts 261°
2026-05-01 14:42 29.07655 48.06677 2468 ft 153 kts 261°
2026-05-01 14:42 29.07439 48.05493 2407 ft 152 kts 261°
2026-05-01 14:43 29.07252 48.04311 2400 ft 150 kts 268°
2026-05-01 14:43 29.07418 48.03162 2397 ft 148 kts 291°
2026-05-01 14:43 29.08000 48.02196 2401 ft 150 kts 316°
2026-05-01 14:43 29.08901 48.01579 2318 ft 153 kts 332°
2026-05-01 14:44 29.09873 48.01067 2148 ft 155 kts 332°
2026-05-01 14:44 29.11843 48.00025 1765 ft 159 kts 334°
2026-05-01 14:44 29.12844 47.99494 1557 ft 157 kts 336°
2026-05-01 14:45 29.13804 47.98984 1361 ft 146 kts 336°
2026-05-01 14:45 29.15572 47.98047 983 ft 138 kts 336°
2026-05-01 14:45 29.16439 47.97590 790 ft 137 kts 336°
2026-05-01 14:46 29.17303 47.97135 617 ft 137 kts 336°
2026-05-01 14:46 29.19025 47.96211 261 ft 136 kts 337°
2026-05-01 14:46 29.19874 47.95779 182 ft 126 kts 336°
2026-05-01 14:47 29.20557 47.95409 189 ft 92 kts 333°
2026-05-01 14:47 29.21022 47.95156 182 ft 59 kts 334°
2026-05-01 14:47 29.21265 47.95047 183 ft 23 kts
2026-05-01 14:48 29.21474 47.95066 191 ft 8 kts
2026-05-01 14:48 29.21524 47.95069 186 ft 6 kts
2026-05-01 14:48 29.21578 47.95066 186 ft 11 kts 349°
2026-05-01 14:49 29.21783 47.94995 183 ft 17 kts 335°
2026-05-01 14:49 29.21978 47.95043 165 ft 23 kts 63°
2026-05-01 14:50 29.22073 47.95277 161 ft 25 kts 65°
2026-05-01 14:50 29.22280 47.95786 160 ft 28 kts 64°
2026-05-01 14:51 29.22365 47.95990 160 ft 29 kts 65°
2026-05-01 14:51 29.22524 47.96385 161 ft 22 kts 64°
2026-05-01 14:52 29.22650 47.96628 168 ft 14 kts 17°
2026-05-01 14:52 29.22743 47.96599 169 ft 15 kts 335°
2026-05-01 14:52 29.22930 47.96498 170 ft 9 kts 335°
2026-05-01 14:53 29.22979 47.96484 171 ft 5 kts
2026-05-01 14:53 29.23017 47.96519 179 ft 9 kts 48°
2026-05-01 14:53 29.23058 47.96613 186 ft 14 kts 65°
2026-05-01 14:53 29.23098 47.96721 190 ft 14 kts 66°
2026-05-01 14:54 29.23138 47.96818 179 ft 13 kts 62°
2026-05-01 14:54 29.23228 47.96839 177 ft 15 kts 338°
2026-05-01 14:54 29.23324 47.96789 178 ft 16 kts 335°
2026-05-01 14:54 29.23431 47.96732 177 ft 19 kts 334°
2026-05-01 14:55 29.23563 47.96661 172 ft 23 kts 335°
2026-05-01 14:55 29.23722 47.96576 166 ft 27 kts 335°
2026-05-01 14:55 29.23898 47.96482 166 ft 28 kts 334°
2026-05-01 14:55 29.24080 47.96385 166 ft 29 kts 335°
2026-05-01 14:56 29.24256 47.96292 165 ft 27 kts 335°
2026-05-01 14:56 29.24428 47.96199 165 ft 28 kts 334°
2026-05-01 14:56 29.24607 47.96105 165 ft 28 kts 334°
2026-05-01 14:56 29.24783 47.96011 165 ft 28 kts 335°
2026-05-01 14:57 29.24938 47.95928 165 ft 23 kts 337°
2026-05-01 14:57 29.25098 47.95896 166 ft 7 kts
2026-05-01 14:57 29.25126 47.95921 167 ft 4 kts 55°
2026-05-01 14:58 29.25135 47.95942 167 ft 3 kts 65°
2026-05-01 14:58 29.25139 47.95952 167 ft 0 kts 63°
2026-05-01 14:58 29.25147 47.95969 167 ft 5 kts 63°
2026-05-01 14:58 29.25149 47.95972 167 ft 0 kts 64°